Location: B?dargowo
(53.3916°N, 14.4413°E)
Time: 06:16:08
(UTC+00:00)

Cosmos 1190 Rocket - Pass Details

Date: 05 February 2023
Orbit: 756 x 778 km, 74.1° (Epoch: 24 March)

Event Time Altitude Azimuth Distance (km) Brightness Sun altitude
Rises 16:20:52 0° 185° (S) 3,249 7.6 -4.7°
Reaches altitude 10° 16:23:19 10° 179° (S) 2,324 6.8 -5.1°
Maximum altitude 16:28:21 47° 107° (ESE) 1,024 4.4 -5.8°
Drops below altitude 10° 16:33:24 10° 35° (NE) 2,329 6.0 -6.5°
Sets 16:35:51 0° 30° (NNE) 3,257 6.8 -6.8°
